ATLAS 5 CENTAUR DEB, 46637

Orbit data source: Space-Track

ATLAS 5 CENTAUR DEB, 46637 is space debris in HEO originally from a launch on Wed, 17 Sep 2014 UTC launched from the Air Force Eastern Test Range (AFETR). Debris objects in space refer to the collection of defunct objects orbiting the Earth. Examples of debris include non-operational satellites, rocket bodies, and fragments generated from explosions, collisions, or faulty payload assembly.

Loading next visibility...
Identifier
46637, 2014-055CM
Orbit
HEO
Last TLE update
1 week ago
Origin
Flag of USUnited Launch Alliance/Lockheed Martin (US)
Manufacturer
Unknown
Mission
Spacecraft
Bus & Motor
Unknown
Mass
Unknown
Launch date (UTC)
2014-09-17 (11 years ago)
Launch vehicle
Unknown
Launch site
Air Force Eastern Test Range (AFETR)
Object type
Payload
Rocket body
Debris
Shape & HBR
Unknown
Radar Cross Section
Small (<0.1 m²)

Expand to show TLE details & history

TLE from 1 week ago
0 ATLAS 5 CENTAUR DEB
1 46637U 14055CM  25181.24611023 -.00000160  00000-0  00000-0 0  9995
2 46637  20.8841 125.2722 5065029 198.1948 133.6983  1.94672639 33623
Epoch: 2025-06-30T05:54Z
TLE epoch observation values (Epoch: 2025-06-30T05:54:23.923Z)
Latitude
0.00001°
Longitude
118.08071°
Altitude
32,466.21 km
Speed
2.411 km/s
True Right ascension
08h 20m 57s
True Declination
0° 00' 00"
Sunlit
Object was in daylight at epoch
Visualization orbit readout
Latitude
4.29065°
Longitude
128.66292°
Altitude
34,097.391 km
Speed
2.233 km/s
Apparent Right ascension
08h 47m 26s
Apparent Declination
-1° 39' 11"
Sunlit
Object is in daylight
Visualization observer readout
Local Sidereal Time
11:06:12
Azimuth
225.997° WSW
Elevation
37.723°
Doppler factor
1
Orbital elements
Apogee altitude
34,441.428 km
Perigee altitude
6,993.451 km
Semi-major axis
27,095.577 km
Eccentricity
0.5065
Inclination
20.8841°
RAAN
125.2722°
Arg. of periapsis
198.1948°
True anomaly
Unknown
Mean anomaly
133.6983°
Eccentric anomaly
Unknown
Mean motion
0.48663 °/min
Orbital period
739.79 mins
BSTAR
0
Loading maneuver chart data...
Loading SW <> Apogee altitude chart data...

ATLAS 5 CENTAUR DEB Visibility forecast

Observer location: undefined°, undefined°

Span
Click to sort rows by Start time (UTC) header in descending order
Start Az.
Max El. time (UTC)
Max El. Az.
Max El.
End time (UTC)
End Az.
397 mins2025-07-06 23:05:58.441Z225.982° WSW2025-07-07 04:53:58.441Z205.645° SW39.604°2025-07-07 05:42:58.441Z129.906° SE
171 mins2025-07-07 20:14:58.441Z223.885° SW2025-07-07 23:05:58.441Z232.65° WSW26.594°2025-07-07 23:05:58.441Z232.65° WSW
|